STARLINK-2487 (48144 NORAD) Tracking and Keplerian Element Data

This shows tracking and keplerian element data for the satellite.

Feedback or suggestion? Click here.




ElementValue
Catalog48144
NameSTARLINK-2487
Epoch Orbit180
Epoch Day136.75001157
Epoch Year2021
RAAN146.2177
Inclination53.0472
Eccentricity0.0002706
Argument of Perigee18.8255
Mean Anonmoly23.776
Mean Motion15.73212387
Decay Rate4.984E-05
L11 48144U 21027BE 21136.75001157 .00004984 00000-0 39893-4 0 9993
L22 48144 53.0472 146.2177 0002706 18.8255 23.7760 15.73212387 1809

Live tracking and technical data element details for STARLINK-2487 (NORAD 48144). STARLINK-2487 can be tracked NOW for your location showing map with azimuth and elevation plus other details from your city location.

Track the satellite on the map from your city or location and see movement details for azimuth, elevation, latitude, longitude, range, height, and movement on the map or in text.







IsCatalogInMostPopularTable: catalog: 48144, numindb: 14
Update: records affected: 1



GetName: 48144 STARLINK-2487

Hit Count: updated at: Mon, 17 May 2021 15:07:44 GMT